EST,Max TemperatureF,Mean TemperatureF,Min TemperatureF,Max Dew PointF,MeanDew PointF,Min DewpointF,Max Humidity, Mean Humidity, Min Humidity, Max Sea Level PressureIn, Mean Sea Level PressureIn, Min Sea Level PressureIn, Max VisibilityMiles, Mean VisibilityMiles, Min VisibilityMiles, Max Wind SpeedMPH, Mean Wind SpeedMPH, Max Gust SpeedMPH,PrecipitationIn, CloudCover, Events, WindDirDegrees
2012-12-1,59,44,32,50,40,32,100,92,67,30.26,30.13,29.92,10,5,1,17,5,26,0.00,7,,139
2012-12-2,59,52,44,55,50,44,99,89,66,30.11,29.96,29.88,10,7,4,21,10,29,0.00,8,Rain,237
2012-12-3,64,49,34,60,51,34,100,96,78,30.12,30.00,29.84,10,4,0,23,5,31,0.00,7,Fog,160
2012-12-4,64,52,38,58,43,30,95,73,52,30.12,29.96,29.84,10,10,7,18,12,28,0.00,4,Rain,252
2012-12-5,37,31,25,31,23,19,91,71,58,30.39,30.33,30.13,10,10,10,14,7,20,0.00,2,,326
2012-12-6,39,32,26,33,28,24,92,80,61,30.33,30.12,29.91,10,10,10,15,6,20,0.00,2,,156
2012-12-7,46,42,38,44,40,33,100,93,80,29.94,29.92,29.89,10,5,2,9,3,,0.00,8,,191
2012-12-8,41,35,29,41,34,30,100,98,91,30.17,29.98,29.85,10,7,1,8,5,,0.00,7,Snow,7
2012-12-9,34,33,32,33,32,30,100,95,87,30.18,29.98,29.65,10,7,2,14,5,20,0.00,7,Snow,70
2012-12-10,35,32,28,35,31,22,100,91,74,29.87,29.70,29.59,10,7,1,13,5,18,0.00,8,Snow,299
2012-12-11,35,28,20,28,22,19,97,73,56,30.09,29.99,29.87,10,10,7,17,5,21,0.00,6,Snow,218
2012-12-12,44,36,29,26,23,18,81,62,36,30.32,30.24,30.10,10,10,7,14,8,21,0.00,4,Snow,204
2012-12-13,47,39,31,25,23,17,74,58,31,30.32,30.24,30.12,10,10,10,16,8,22,0.00,0,,190
2012-12-14,46,38,30,31,28,23,92,70,53,30.23,30.18,30.13,10,10,7,6,2,,0.00,0,,151
2012-12-15,44,38,32,42,34,29,94,84,65,30.16,29.94,29.64,10,6,2,16,6,22,0.00,5,,117
2012-12-16,50,46,42,48,44,39,94,90,82,29.65,29.60,29.57,10,7,2,9,6,,0.00,8,Rain,207
2012-12-17,42,40,38,39,35,32,90,81,68,29.73,29.67,29.62,10,10,5,10,5,,0.00,8,,244
2012-12-18,41,36,31,33,29,24,96,78,51,29.76,29.71,29.64,10,8,2,12,3,,0.00,5,Snow,264
2012-12-19,43,38,32,35,33,31,96,88,64,30.11,29.98,29.74,10,5,2,8,1,,0.00,6,,275
2012-12-20,45,40,34,43,37,32,93,87,74,30.06,29.50,29.12,10,6,2,23,11,33,0.00,8,Rain-Snow,122
2012-12-21,38,34,30,33,27,22,96,80,64,29.89,29.49,29.15,10,7,1,24,12,37,0.00,8,Rain-Snow,303
2012-12-22,34,31,28,24,22,20,80,69,60,30.07,30.00,29.91,10,10,10,21,13,30,0.00,5,,271
2012-12-23,33,27,21,25,21,16,85,75,60,30.03,29.94,29.87,10,10,7,9,5,,0.00,4,,274
2012-12-24,30,24,17,26,21,15,92,84,73,30.02,29.95,29.85,10,9,1,12,3,,0.00,6,Snow,32
2012-12-25,31,28,25,23,20,16,86,72,54,30.33,30.22,30.01,10,10,10,12,4,16,0.00,6,,349
2012-12-26,30,28,25,27,23,20,91,79,68,30.28,30.04,29.91,10,7,1,20,10,29,0.00,8,Snow,24
2012-12-27,30,22,14,24,19,11,89,78,55,30.14,30.06,29.92,10,9,2,13,8,20,0.00,3,Snow,317
2012-12-28,29,20,10,22,17,8,92,83,64,30.16,30.07,29.93,10,9,2,5,1,,0.00,6,Snow,102
2012-12-29,30,26,21,24,22,16,90,82,68,30.05,29.90,29.84,10,9,3,10,3,,0.00,7,Snow,325
2012-12-30,30,26,21,26,21,16,90,78,70,30.25,30.18,30.05,10,9,5,13,8,20,0.00,7,Snow,234
2012-12-31,36,29,22,28,22,14,80,70,56,30.12,29.97,29.87,10,10,7,17,10,22,0.00,5,,239